Saint Bonnet de Bellac- Haute Vienne - France
Donnes mto: jeudi, 02/08/2012
Date Horaire Temp. E. Hum. E. P.atmo. Pluie Vent Direction Direction Ensoleilleme Solaire P. de rose Temp au vent Rafales
02/08/2012 00:00 17,4 C 78 % 1015,3 hPa 0,0 mm 4,0 km/h (1 Bft) O-SO 247 0 min 0 W/m 13,5 C 17,4 C 7,2 km/h (2 Bft)
02/08/2012 00:10 17,2 C 78 % 1015,2 hPa 0,0 mm 4,0 km/h (1 Bft) SO 225 0 min 0 W/m 13,3 C 17,2 C 7,9 km/h (2 Bft)
02/08/2012 00:20 17,1 C 78 % 1015,3 hPa 0,0 mm 2,2 km/h (1 Bft) SO 225 0 min 0 W/m 13,2 C 17,1 C 4,3 km/h (1 Bft)
02/08/2012 00:30 16,9 C 79 % 1015,4 hPa 0,0 mm 3,2 km/h (1 Bft) SO 225 0 min 0 W/m 13,2 C 16,9 C 6,5 km/h (2 Bft)
02/08/2012 00:40 16,8 C 79 % 1015,4 hPa 0,0 mm 5,8 km/h (2 Bft) SO 225 0 min 0 W/m 13,1 C 16,8 C 8,6 km/h (2 Bft)
02/08/2012 00:50 16,6 C 80 % 1015,5 hPa 0,0 mm 3,2 km/h (1 Bft) SO 225 0 min 0 W/m 13,1 C 16,6 C 6,1 km/h (2 Bft)
02/08/2012 01:00 16,6 C 81 % 1015,5 hPa 0,0 mm 4,3 km/h (1 Bft) SO 225 0 min 0 W/m 13,3 C 16,6 C 6,5 km/h (2 Bft)
02/08/2012 01:10 16,6 C 81 % 1015,5 hPa 0,0 mm 7,6 km/h (2 Bft) S 180 0 min 0 W/m 13,3 C 16,6 C 7,6 km/h (2 Bft)
02/08/2012 01:20 16,8 C 82 % 1015,5 hPa 0,0 mm 4,3 km/h (1 Bft) S-SO 202 0 min 0 W/m 13,7 C 16,8 C 8,6 km/h (2 Bft)
02/08/2012 01:30 16,9 C 82 % 1015,6 hPa 0,0 mm 6,8 km/h (2 Bft) S-SO 202 0 min 0 W/m 13,8 C 16,9 C 7,9 km/h (2 Bft)
02/08/2012 01:40 16,9 C 82 % 1015,5 hPa 0,0 mm 6,8 km/h (2 Bft) N 360 0 min 0 W/m 13,8 C 16,9 C 6,8 km/h (2 Bft)
02/08/2012 01:50 16,9 C 82 % 1015,6 hPa 0,0 mm 4,0 km/h (1 Bft) SO 225 0 min 0 W/m 13,8 C 16,9 C 7,9 km/h (2 Bft)
02/08/2012 02:00 16,8 C 83 % 1015,6 hPa 0,0 mm 6,5 km/h (2 Bft) SO 225 0 min 0 W/m 13,9 C 16,8 C 7,6 km/h (2 Bft)
02/08/2012 02:10 16,8 C 83 % 1015,6 hPa 0,0 mm 6,1 km/h (2 Bft) S-SO 202 0 min 0 W/m 13,9 C 16,8 C 9,4 km/h (2 Bft)
02/08/2012 02:20 16,8 C 84 % 1015,5 hPa 0,0 mm 5,4 km/h (2 Bft) SO 225 0 min 0 W/m 14,1 C 16,8 C 9,0 km/h (2 Bft)
02/08/2012 02:30 16,8 C 84 % 1015,4 hPa 0,0 mm 4,3 km/h (1 Bft) O-SO 247 0 min 0 W/m 14,1 C 16,8 C 4,3 km/h (1 Bft)
02/08/2012 02:40 16,8 C 84 % 1015,5 hPa 0,0 mm 4,7 km/h (1 Bft) O-SO 247 0 min 0 W/m 14,1 C 16,8 C 10,1 km/h (2 Bft)
02/08/2012 02:50 16,8 C 84 % 1015,5 hPa 0,0 mm 6,1 km/h (2 Bft) O-SO 247 0 min 0 W/m 14,1 C 16,8 C 6,1 km/h (2 Bft)
02/08/2012 03:02 16,8 C 85 % 1015,5 hPa 0,0 mm 6,5 km/h (2 Bft) S-SE 157 0 min 0 W/m 14,3 C 16,8 C 9,4 km/h (2 Bft)
02/08/2012 03:10 16,8 C 85 % 1015,5 hPa 0,0 mm 4,0 km/h (1 Bft) S 180 0 min 0 W/m 14,3 C 16,8 C 4,0 km/h (1 Bft)
02/08/2012 03:20 16,8 C 85 % 1015,5 hPa 0,0 mm 5,4 km/h (2 Bft) S-SO 202 0 min 0 W/m 14,3 C 16,8 C 7,9 km/h (2 Bft)
02/08/2012 03:30 16,6 C 86 % 1015,4 hPa 0,0 mm 3,2 km/h (1 Bft) SO 225 0 min 0 W/m 14,2 C 16,6 C 6,5 km/h (2 Bft)
02/08/2012 03:40 16,6 C 86 % 1015,4 hPa 0,0 mm 4,3 km/h (1 Bft) SO 225 0 min 0 W/m 14,2 C 16,6 C 7,2 km/h (2 Bft)
02/08/2012 03:50 16,5 C 86 % 1015,3 hPa 0,0 mm 4,7 km/h (1 Bft) SO 225 0 min 0 W/m 14,1 C 16,5 C 9,0 km/h (2 Bft)
02/08/2012 04:00 16,4 C 86 % 1015,5 hPa 0,0 mm 3,2 km/h (1 Bft) SO 225 0 min 0 W/m 14,1 C 16,4 C 6,1 km/h (2 Bft)
02/08/2012 04:10 16,4 C 86 % 1015,5 hPa 0,0 mm 3,6 km/h (1 Bft) SO 225 0 min 0 W/m 14,1 C 16,4 C 3,6 km/h (1 Bft)
02/08/2012 04:20 16,4 C 87 % 1015,5 hPa 0,0 mm 2,5 km/h (1 Bft) SO 225 0 min 0 W/m 14,2 C 16,4 C 4,0 km/h (1 Bft)
02/08/2012 04:30 16,5 C 87 % 1015,5 hPa 0,0 mm 3,2 km/h (1 Bft) SO 225 0 min 0 W/m 14,3 C 16,5 C 4,7 km/h (1 Bft)
02/08/2012 04:40 16,5 C 87 % 1015,6 hPa 0,0 mm 2,5 km/h (1 Bft) SO 225 0 min 0 W/m 14,3 C 16,5 C 4,0 km/h (1 Bft)
02/08/2012 04:50 16,6 C 87 % 1015,6 hPa 0,0 mm 2,5 km/h (1 Bft) SO 225 0 min 0 W/m 14,4 C 16,6 C 9,7 km/h (2 Bft)
02/08/2012 05:00 16,5 C 87 % 1015,5 hPa 0,0 mm 1,8 km/h (1 Bft) S-SO 202 0 min 0 W/m 14,3 C 16,5 C 4,3 km/h (1 Bft)
02/08/2012 05:10 16,4 C 87 % 1015,6 hPa 0,0 mm 3,6 km/h (1 Bft) SO 225 0 min 0 W/m 14,2 C 16,4 C 6,8 km/h (2 Bft)
02/08/2012 05:20 16,3 C 87 % 1015,6 hPa 0,0 mm 1,4 km/h (1 Bft) SO 225 0 min 0 W/m 14,1 C 16,3 C 1,4 km/h (1 Bft)
02/08/2012 05:30 16,2 C 87 % 1015,7 hPa 0,0 mm 2,2 km/h (1 Bft) SO 225 0 min 0 W/m 14,0 C 16,2 C 6,5 km/h (2 Bft)
02/08/2012 05:40 16,1 C 88 % 1015,7 hPa 0,0 mm 4,7 km/h (1 Bft) SO 225 0 min 0 W/m 14,1 C 16,1 C 4,7 km/h (1 Bft)
02/08/2012 05:50 16,0 C 88 % 1015,7 hPa 0,0 mm 4,0 km/h (1 Bft) SO 225 0 min 0 W/m 14,0 C 16,0 C 4,3 km/h (1 Bft)
02/08/2012 06:00 15,9 C 89 % 1015,8 hPa 0,0 mm 5,4 km/h (2 Bft) O-SO 247 0 min 0 W/m 14,1 C 15,9 C 9,4 km/h (2 Bft)
02/08/2012 06:10 15,8 C 89 % 1015,9 hPa 0,0 mm 4,3 km/h (1 Bft) SO 225 0 min 0 W/m 14,0 C 15,8 C 6,5 km/h (2 Bft)
02/08/2012 06:20 15,8 C 90 % 1015,9 hPa 0,0 mm 2,5 km/h (1 Bft) S-SO 202 0 min 0 W/m 14,2 C 15,8 C 8,6 km/h (2 Bft)
02/08/2012 06:30 15,7 C 90 % 1016,0 hPa 0,0 mm 4,7 km/h (1 Bft) SO 225 0 min 0 W/m 14,1 C 15,7 C 7,9 km/h (2 Bft)
02/08/2012 06:40 15,7 C 90 % 1016,1 hPa 0,0 mm 2,9 km/h (1 Bft) SO 225 0 min 0 W/m 14,1 C 15,7 C 4,3 km/h (1 Bft)
02/08/2012 06:50 15,7 C 91 % 1016,1 hPa 0,0 mm 2,9 km/h (1 Bft) S-SO 202 0 min 0 W/m 14,2 C 15,7 C 7,2 km/h (2 Bft)
02/08/2012 07:00 15,7 C 91 % 1016,1 hPa 0,0 mm 2,2 km/h (1 Bft) SO 225 0 min 0 W/m 14,2 C 15,7 C 6,5 km/h (2 Bft)
02/08/2012 07:10 15,8 C 91 % 1016,1 hPa 0,0 mm 1,4 km/h (1 Bft) SO 225 0 min 0 W/m 14,3 C 15,8 C 1,4 km/h (1 Bft)
02/08/2012 07:20 15,9 C 91 % 1016,2 hPa 0,0 mm 2,9 km/h (1 Bft) SO 225 0 min 0 W/m 14,4 C 15,9 C 4,0 km/h (1 Bft)
02/08/2012 07:30 16,0 C 91 % 1016,2 hPa 0,0 mm 2,5 km/h (1 Bft) O-SO 247 0 min 0 W/m 14,5 C 16,0 C 3,6 km/h (1 Bft)
02/08/2012 07:40 16,2 C 91 % 1016,2 hPa 0,0 mm 2,5 km/h (1 Bft) SO 225 0 min 0 W/m 14,7 C 16,2 C 3,6 km/h (1 Bft)
02/08/2012 07:50 16,3 C 91 % 1016,2 hPa 0,0 mm 1,1 km/h (1 Bft) S 180 0 min 0 W/m 14,8 C 16,3 C 4,0 km/h (1 Bft)
02/08/2012 08:00 16,5 C 91 % 1016,2 hPa 0,0 mm 2,5 km/h (1 Bft) S-SO 202 0 min 0 W/m 15,0 C 16,5 C 6,1 km/h (2 Bft)
02/08/2012 08:10 16,6 C 90 % 1016,3 hPa 0,0 mm 4,0 km/h (1 Bft) S-SO 202 0 min 0 W/m 15,0 C 16,6 C 4,0 km/h (1 Bft)
02/08/2012 08:20 16,7 C 90 % 1016,4 hPa 0,0 mm 2,9 km/h (1 Bft) SO 225 0 min 0 W/m 15,0 C 16,7 C 3,6 km/h (1 Bft)
02/08/2012 08:30 16,9 C 89 % 1016,5 hPa 0,0 mm 1,1 km/h (1 Bft) SO 225 0 min 0 W/m 15,1 C 16,9 C 4,0 km/h (1 Bft)
02/08/2012 08:40 16,9 C 89 % 1016,6 hPa 0,0 mm 2,5 km/h (1 Bft) SO 225 0 min 0 W/m 15,1 C 16,9 C 4,0 km/h (1 Bft)
02/08/2012 08:50 17,1 C 89 % 1016,7 hPa 0,0 mm 2,2 km/h (1 Bft) SO 225 0 min 0 W/m 15,3 C 17,1 C 3,6 km/h (1 Bft)
02/08/2012 09:00 17,2 C 88 % 1016,8 hPa 0,0 mm 4,3 km/h (1 Bft) SO 225 0 min 0 W/m 15,2 C 17,2 C 4,3 km/h (1 Bft)
02/08/2012 09:10 17,4 C 87 % 1016,8 hPa 0,0 mm 5,8 km/h (2 Bft) S 180 0 min 0 W/m 15,2 C 17,4 C 9,4 km/h (2 Bft)
02/08/2012 09:20 17,5 C 86 % 1016,9 hPa 0,0 mm 2,9 km/h (1 Bft) SO 225 0 min 0 W/m 15,1 C 17,5 C 4,3 km/h (1 Bft)
02/08/2012 09:30 17,8 C 86 % 1016,9 hPa 0,0 mm 1,8 km/h (1 Bft) SO 225 0 min 0 W/m 15,4 C 17,8 C 3,6 km/h (1 Bft)
02/08/2012 09:40 17,9 C 85 % 1016,9 hPa 0,0 mm 5,0 km/h (1 Bft) SO 225 0 min 0 W/m 15,3 C 17,9 C 7,6 km/h (2 Bft)
02/08/2012 09:50 18,3 C 83 % 1017,1 hPa 0,0 mm 3,2 km/h (1 Bft) SO 225 0 min 0 W/m 15,4 C 18,3 C 7,9 km/h (2 Bft)
02/08/2012 10:00 18,3 C 83 % 1017,0 hPa 0,0 mm 2,9 km/h (1 Bft) S-SO 202 0 min 0 W/m 15,4 C 18,3 C 4,0 km/h (1 Bft)
02/08/2012 10:10 18,4 C 82 % 1017,0 hPa 0,0 mm 1,4 km/h (1 Bft) S-SO 202 0 min 0 W/m 15,3 C 18,4 C 4,0 km/h (1 Bft)
02/08/2012 10:20 18,8 C 81 % 1017,0 hPa 0,0 mm 2,5 km/h (1 Bft) O-SO 247 0 min 0 W/m 15,5 C 18,8 C 7,2 km/h (2 Bft)
02/08/2012 10:30 18,9 C 80 % 1017,0 hPa 0,0 mm 1,8 km/h (1 Bft) O 270 0 min 0 W/m 15,4 C 18,9 C 4,3 km/h (1 Bft)
02/08/2012 10:40 19,2 C 78 % 1016,9 hPa 0,0 mm 2,9 km/h (1 Bft) S-SO 202 0 min 0 W/m 15,3 C 19,2 C 4,7 km/h (1 Bft)
02/08/2012 10:50 19,5 C 78 % 1016,9 hPa 0,0 mm 2,9 km/h (1 Bft) SO 225 0 min 0 W/m 15,6 C 19,5 C 2,9 km/h (1 Bft)
02/08/2012 11:00 19,8 C 77 % 1017,1 hPa 0,0 mm 1,4 km/h (1 Bft) O-SO 247 0 min 0 W/m 15,6 C 19,8 C 1,4 km/h (1 Bft)
02/08/2012 11:10 20,0 C 75 % 1017,1 hPa 0,0 mm 4,0 km/h (1 Bft) O 270 0 min 0 W/m 15,4 C 20,0 C 4,3 km/h (1 Bft)
02/08/2012 11:20 20,1 C 75 % 1017,2 hPa 0,0 mm 0,4 km/h (0 Bft) O-SO 247 0 min 0 W/m 15,5 C 20,1 C 0,4 km/h (0 Bft)
02/08/2012 11:30 20,3 C 75 % 1017,2 hPa 0,0 mm 5,0 km/h (1 Bft) S-SE 157 0 min 0 W/m 15,7 C 20,3 C 7,6 km/h (2 Bft)
02/08/2012 11:40 20,9 C 73 % 1017,2 hPa 0,0 mm 1,4 km/h (1 Bft) SO 225 0 min 0 W/m 15,9 C 20,9 C 6,8 km/h (2 Bft)
02/08/2012 11:50 21,1 C 71 % 1017,3 hPa 0,0 mm 2,5 km/h (1 Bft) O 270 0 min 0 W/m 15,6 C 21,1 C 4,0 km/h (1 Bft)
02/08/2012 12:00 21,4 C 71 % 1017,2 hPa 0,0 mm 4,3 km/h (1 Bft) SO 225 0 min 0 W/m 15,9 C 21,4 C 7,9 km/h (2 Bft)
02/08/2012 12:10 21,9 C 69 % 1017,3 hPa 0,0 mm 2,9 km/h (1 Bft) SO 225 0 min 0 W/m 15,9 C 21,9 C 4,0 km/h (1 Bft)
02/08/2012 12:20 22,1 C 68 % 1017,3 hPa 0,0 mm 0,4 km/h (0 Bft) O-SO 247 0 min 0 W/m 15,9 C 22,1 C 2,9 km/h (1 Bft)
02/08/2012 12:30 22,5 C 67 % 1017,2 hPa 0,0 mm 3,6 km/h (1 Bft) SO 225 0 min 0 W/m 16,1 C 22,5 C 7,2 km/h (2 Bft)
02/08/2012 12:40 22,8 C 66 % 1017,2 hPa 0,0 mm 6,5 km/h (2 Bft) S-SO 202 0 min 0 W/m 16,1 C 22,8 C 10,4 km/h (2 Bft)
02/08/2012 12:50 23,4 C 64 % 1017,1 hPa 0,0 mm 8,3 km/h (2 Bft) S-SO 202 0 min 0 W/m 16,2 C 23,4 C 15,1 km/h (3 Bft)
02/08/2012 13:00 23,4 C 62 % 1017,1 hPa 0,0 mm 8,6 km/h (2 Bft) SO 225 0 min 0 W/m 15,7 C 23,4 C 11,2 km/h (2 Bft)
02/08/2012 13:10 23,2 C 61 % 1017,1 hPa 0,0 mm 7,6 km/h (2 Bft) SO 225 0 min 0 W/m 15,3 C 23,2 C 11,9 km/h (2 Bft)
02/08/2012 13:20 23,1 C 62 % 1016,9 hPa 0,0 mm 6,1 km/h (2 Bft) SO 225 0 min 0 W/m 15,4 C 23,1 C 9,7 km/h (2 Bft)
02/08/2012 13:30 23,5 C 63 % 1016,9 hPa 0,0 mm 5,8 km/h (2 Bft) O-SO 247 0 min 0 W/m 16,0 C 23,5 C 7,9 km/h (2 Bft)
02/08/2012 13:40 24,0 C 60 % 1016,9 hPa 0,0 mm 10,8 km/h (2 Bft) SO 225 0 min 0 W/m 15,7 C 24,0 C 15,5 km/h (3 Bft)
02/08/2012 13:50 24,3 C 58 % 1016,8 hPa 0,0 mm 9,7 km/h (2 Bft) O 270 0 min 0 W/m 15,5 C 24,3 C 13,7 km/h (3 Bft)
02/08/2012 14:00 24,2 C 59 % 1016,8 hPa 0,0 mm 7,6 km/h (2 Bft) O-SO 247 0 min 0 W/m 15,7 C 24,2 C 7,6 km/h (2 Bft)
02/08/2012 14:10 23,9 C 59 % 1016,8 hPa 0,0 mm 8,6 km/h (2 Bft) S-SO 202 0 min 0 W/m 15,4 C 23,9 C 11,2 km/h (2 Bft)
02/08/2012 14:20 23,6 C 59 % 1016,8 hPa 0,0 mm 9,0 km/h (2 Bft) S-SO 202 0 min 0 W/m 15,1 C 23,6 C 13,3 km/h (3 Bft)
02/08/2012 14:30 23,7 C 60 % 1016,8 hPa 0,0 mm 5,4 km/h (2 Bft) SO 225 0 min 0 W/m 15,5 C 23,7 C 8,3 km/h (2 Bft)
02/08/2012 14:40 23,6 C 58 % 1016,8 hPa 0,0 mm 7,6 km/h (2 Bft) SO 225 0 min 0 W/m 14,8 C 23,6 C 9,4 km/h (2 Bft)
02/08/2012 14:50 23,5 C 59 % 1016,8 hPa 0,0 mm 4,7 km/h (1 Bft) SO 225 0 min 0 W/m 15,0 C 23,5 C 6,1 km/h (2 Bft)
02/08/2012 15:00 24,0 C 59 % 1016,8 hPa 0,0 mm 6,5 km/h (2 Bft) SO 225 0 min 0 W/m 15,5 C 24,0 C 10,1 km/h (2 Bft)
02/08/2012 15:10 24,3 C 57 % 1016,8 hPa 0,0 mm 4,7 km/h (1 Bft) S 180 0 min 0 W/m 15,2 C 24,3 C 6,1 km/h (2 Bft)
02/08/2012 15:20 24,5 C 55 % 1016,8 hPa 0,0 mm 5,8 km/h (2 Bft) SO 225 0 min 0 W/m 14,9 C 24,5 C 10,1 km/h (2 Bft)
02/08/2012 15:30 24,9 C 54 % 1016,8 hPa 0,0 mm 9,4 km/h (2 Bft) O-SO 247 0 min 0 W/m 14,9 C 24,9 C 9,4 km/h (2 Bft)
02/08/2012 15:40 24,9 C 54 % 1016,8 hPa 0,0 mm 8,6 km/h (2 Bft) SO 225 0 min 0 W/m 14,9 C 24,9 C 15,5 km/h (3 Bft)
02/08/2012 15:50 24,7 C 54 % 1016,9 hPa 0,0 mm 5,0 km/h (1 Bft) O-SO 247 0 min 0 W/m 14,8 C 24,7 C 9,7 km/h (2 Bft)
02/08/2012 16:00 24,3 C 57 % 1016,8 hPa 0,0 mm 4,7 km/h (1 Bft) S-SO 202 0 min 0 W/m 15,2 C 24,3 C 7,6 km/h (2 Bft)
02/08/2012 16:10 24,6 C 56 % 1016,8 hPa 0,0 mm 2,9 km/h (1 Bft) SO 225 0 min 0 W/m 15,2 C 24,6 C 2,9 km/h (1 Bft)
02/08/2012 16:20 24,4 C 56 % 1016,8 hPa 0,0 mm 2,5 km/h (1 Bft) SO 225 0 min 0 W/m 15,0 C 24,4 C 8,6 km/h (2 Bft)
02/08/2012 16:30 24,7 C 56 % 1016,9 hPa 0,0 mm 0,0 km/h (0 Bft) SO 225 0 min 0 W/m 15,3 C 24,7 C 0,0 km/h (0 Bft)
02/08/2012 16:40 24,7 C 55 % 1016,9 hPa 0,0 mm 5,4 km/h (2 Bft) S-SO 202 0 min 0 W/m 15,0 C 24,7 C 10,4 km/h (2 Bft)
02/08/2012 16:50 24,6 C 56 % 1016,9 hPa 0,0 mm 1,1 km/h (1 Bft) SO 225 0 min 0 W/m 15,2 C 24,6 C 4,0 km/h (1 Bft)
02/08/2012 17:00 24,5 C 54 % 1016,9 hPa 0,0 mm 1,4 km/h (1 Bft) O 270 0 min 0 W/m 14,6 C 24,5 C 3,2 km/h (1 Bft)
02/08/2012 17:10 24,3 C 55 % 1016,9 hPa 0,0 mm 5,4 km/h (2 Bft) O 270 0 min 0 W/m 14,7 C 24,3 C 10,8 km/h (2 Bft)
02/08/2012 17:20 23,8 C 56 % 1017,0 hPa 0,0 mm 10,4 km/h (2 Bft) S-SE 157 0 min 0 W/m 14,5 C 23,8 C 10,4 km/h (2 Bft)
02/08/2012 17:30 23,7 C 57 % 1017,0 hPa 0,0 mm 3,6 km/h (1 Bft) O-SO 247 0 min 0 W/m 14,7 C 23,7 C 8,6 km/h (2 Bft)
02/08/2012 17:40 23,6 C 58 % 1017,0 hPa 0,0 mm 4,3 km/h (1 Bft) SO 225 0 min 0 W/m 14,8 C 23,6 C 4,3 km/h (1 Bft)
02/08/2012 17:50 23,6 C 57 % 1017,0 hPa 0,0 mm 4,3 km/h (1 Bft) O-SO 247 0 min 0 W/m 14,6 C 23,6 C 10,4 km/h (2 Bft)
02/08/2012 18:00 23,6 C 58 % 1016,9 hPa 0,0 mm 6,5 km/h (2 Bft) O-SO 247 0 min 0 W/m 14,8 C 23,6 C 7,6 km/h (2 Bft)
02/08/2012 18:10 23,6 C 58 % 1016,9 hPa 0,0 mm 7,2 km/h (2 Bft) SO 225 0 min 0 W/m 14,8 C 23,6 C 7,9 km/h (2 Bft)
02/08/2012 18:20 23,4 C 58 % 1016,9 hPa 0,0 mm 7,6 km/h (2 Bft) O 270 0 min 0 W/m 14,7 C 23,4 C 15,8 km/h (3 Bft)
02/08/2012 18:30 23,3 C 59 % 1016,8 hPa 0,0 mm 6,5 km/h (2 Bft) SO 225 0 min 0 W/m 14,8 C 23,3 C 7,9 km/h (2 Bft)
02/08/2012 18:40 23,3 C 60 % 1016,7 hPa 0,0 mm 1,8 km/h (1 Bft) O-SO 247 0 min 0 W/m 15,1 C 23,3 C 1,8 km/h (1 Bft)
02/08/2012 18:50 23,7 C 58 % 1016,8 hPa 0,0 mm 6,8 km/h (2 Bft) S-SO 202 0 min 0 W/m 14,9 C 23,7 C 7,2 km/h (2 Bft)
02/08/2012 19:00 23,9 C 57 % 1016,9 hPa 0,0 mm 2,9 km/h (1 Bft) O 270 0 min 0 W/m 14,9 C 23,9 C 3,6 km/h (1 Bft)
02/08/2012 19:10 23,8 C 57 % 1016,9 hPa 0,0 mm 4,7 km/h (1 Bft) O-SO 247 0 min 0 W/m 14,8 C 23,8 C 7,2 km/h (2 Bft)
02/08/2012 19:20 23,8 C 57 % 1016,8 hPa 0,0 mm 1,1 km/h (1 Bft) SO 225 0 min 0 W/m 14,8 C 23,8 C 1,1 km/h (1 Bft)
02/08/2012 19:30 23,9 C 55 % 1016,9 hPa 0,0 mm 0,7 km/h (0 Bft) O-SO 247 0 min 0 W/m 14,3 C 23,9 C 3,6 km/h (1 Bft)
02/08/2012 19:40 23,9 C 55 % 1017,0 hPa 0,0 mm 1,4 km/h (1 Bft) SO 225 0 min 0 W/m 14,3 C 23,9 C 4,3 km/h (1 Bft)
02/08/2012 19:50 23,8 C 54 % 1017,1 hPa 0,0 mm 9,0 km/h (2 Bft) O-SO 247 0 min 0 W/m 13,9 C 23,8 C 11,9 km/h (2 Bft)
02/08/2012 20:00 23,7 C 55 % 1017,1 hPa 0,0 mm 2,2 km/h (1 Bft) O 270 0 min 0 W/m 14,1 C 23,7 C 4,3 km/h (1 Bft)
02/08/2012 20:10 23,6 C 54 % 1017,2 hPa 0,0 mm 5,8 km/h (2 Bft) O 270 0 min 0 W/m 13,7 C 23,6 C 12,6 km/h (3 Bft)
02/08/2012 20:20 23,3 C 55 % 1017,2 hPa 0,0 mm 0,7 km/h (0 Bft) S-SO 202 0 min 0 W/m 13,7 C 23,3 C 0,7 km/h (0 Bft)
02/08/2012 20:30 22,6 C 57 % 1017,3 hPa 0,0 mm 1,1 km/h (1 Bft) O-SO 247 0 min 0 W/m 13,6 C 22,6 C 3,6 km/h (1 Bft)
02/08/2012 20:40 21,9 C 58 % 1017,4 hPa 0,0 mm 4,0 km/h (1 Bft) SO 225 0 min 0 W/m 13,3 C 21,9 C 4,0 km/h (1 Bft)
02/08/2012 20:50 21,4 C 59 % 1017,5 hPa 0,0 mm 0,0 km/h (0 Bft) SO 225 0 min 0 W/m 13,0 C 21,4 C 0,0 km/h (0 Bft)
02/08/2012 21:00 21,0 C 61 % 1017,5 hPa 0,0 mm 1,8 km/h (1 Bft) SO 225 0 min 0 W/m 13,2 C 21,0 C 4,3 km/h (1 Bft)
02/08/2012 21:10 20,6 C 61 % 1017,6 hPa 0,0 mm 0,4 km/h (0 Bft) N-NO 337 0 min 0 W/m 12,8 C 20,6 C 4,0 km/h (1 Bft)
02/08/2012 21:20 20,3 C 62 % 1017,7 hPa 0,0 mm 1,4 km/h (1 Bft) SO 225 0 min 0 W/m 12,8 C 20,3 C 1,4 km/h (1 Bft)
02/08/2012 21:30 19,8 C 63 % 1017,8 hPa 0,0 mm 0,0 km/h (0 Bft) O-SO 247 0 min 0 W/m 12,5 C 19,8 C 0,0 km/h (0 Bft)
02/08/2012 21:40 19,4 C 64 % 1018,0 hPa 0,0 mm 0,0 km/h (0 Bft) S-SO 202 0 min 0 W/m 12,4 C 19,4 C 0,0 km/h (0 Bft)
02/08/2012 21:50 18,9 C 64 % 1018,2 hPa 0,0 mm 0,0 km/h (0 Bft) S-SO 202 0 min 0 W/m 11,9 C 18,9 C 1,4 km/h (1 Bft)
02/08/2012 22:00 18,6 C 65 % 1018,2 hPa 0,0 mm 0,0 km/h (0 Bft) O 270 0 min 0 W/m 11,9 C 18,6 C 0,0 km/h (0 Bft)
02/08/2012 22:10 18,3 C 66 % 1018,2 hPa 0,0 mm 0,0 km/h (0 Bft) S-SO 202 0 min 0 W/m 11,8 C 18,3 C 0,0 km/h (0 Bft)
02/08/2012 22:20 17,9 C 67 % 1018,2 hPa 0,0 mm 0,0 km/h (0 Bft) S-SO 202 0 min 0 W/m 11,7 C 17,9 C 0,0 km/h (0 Bft)
02/08/2012 22:30 17,6 C 67 % 1018,3 hPa 0,0 mm 0,0 km/h (0 Bft) S-SO 202 0 min 0 W/m 11,4 C 17,6 C 0,0 km/h (0 Bft)
02/08/2012 22:40 17,4 C 68 % 1018,3 hPa 0,0 mm 0,0 km/h (0 Bft) SO 225 0 min 0 W/m 11,4 C 17,4 C 0,0 km/h (0 Bft)
02/08/2012 22:50 17,1 C 69 % 1018,5 hPa 0,0 mm 0,0 km/h (0 Bft) O 270 0 min 0 W/m 11,4 C 17,1 C 0,0 km/h (0 Bft)
02/08/2012 23:00 16,9 C 70 % 1018,6 hPa 0,0 mm 0,0 km/h (0 Bft) S-SO 202 0 min 0 W/m 11,4 C 16,9 C 0,0 km/h (0 Bft)
02/08/2012 23:10 16,6 C 70 % 1018,8 hPa 0,0 mm 0,0 km/h (0 Bft) S-SO 202 0 min 0 W/m 11,1 C 16,6 C 0,0 km/h (0 Bft)
_ Min-Heure 07:00 20:10 00:10 - 23:10 - - - - 23:10 07:00 23:10
Minimum _ 15,7 C 54 % 1015,2 hPa - 0,0 km/h (0 Bft) - - - - 11,1 C 15,7 C 0,0 km/h (0 Bft)
_ Max-Heure 15:40 08:00 23:10 23:10 13:40 - - 23:10 23:10 12:50 15:40 18:20
Maximum _ 24,9 C 91 % 1018,8 hPa 0,0 mm 10,8 km/h
SO (2 Bft)
- - 0 min 0 W/m 16,2 C 24,9 C 15,8 km/h
O (3 Bft)
Moyenne _ 19,8 C 73 % 1016,6 hPa #0,0 mm 3,8 km/h (1 Bft) SO - #0 min. 0 W/m 14,4 C 19,8 C 6,1 km/h (2 Bft)
Saint Bonnet de Bellac- Haute Vienne - France